Regional Weather Roundup
Issued by NWS

Home | Current Version | Previous Version | Text Only | Print | Product List | Glossary Off
Versions: 1 2 3 4 5 6 7 8 9 10 11 12 13 14 15 16 17 18 19 20 21 22 23 24 25 26 27 28 29 30 31 32 33 34 35 36 37 38 39 40 41 42 43 44 45 46 47 48 49 50

000
ASUS43 KMPX 221501
RWRMN
WEATHER ROUNDUP FOR MINNESOTA
NATIONAL WEATHER SERVICE TWIN CITIES/CHANHASSEN MN
900 AM CST THU FEB 22 2018


NOTE: "FAIR" INDICATES FEW OR NO CLOUDS BELOW 12,000 FEET WITH NO
SIGNIFICANT WEATHER AND/OR OBSTRUCTIONS TO VISIBILITY. N/A MEANS
CURRENT SKY AND/OR WEATHER CONDITIONS ARE NOT AVAILABLE.

MNZ060>063-068>070-221600-
   Twin Cities Metro

CITY           SKY/WX    TMP DP  RH WIND       PRES   REMARKS
TWIN CITIES    CLOUDY    17   7  64 E8        30.57F WCI   7
ST PAUL        CLOUDY    16   7  67 SE6       30.60F WCI   7
CRYSTAL        CLOUDY    15   6  67 E7        30.57F WCI   5
BLAINE         PTSUNNY   14   7  73 E3        30.57F
LAKEVILLE      CLOUDY    12   9  85 E7        30.56S WCI   2
EDEN PRAIRIE     N/A     16   6  65 E7        30.56F WCI   6
SOUTH ST PAUL  CLOUDY    16   7  66 SE3       30.58F
LAKE ELMO      FAIR      14   7  73 SE5       30.60S WCI   6
$$
MNZ001>005-007-008-013>017-022>024-027-028-221600-
   Northwest Minnesota

CITY           SKY/WX    TMP DP  RH WIND       PRES   REMARKS
BEMIDJI        FAIR       2  -2  83 E6        30.44F WCI  -9
HALLOCK        FAIR       1  -6  71 S12       30.42S WCI -15
ROSEAU         FAIR       1  -4  78 S8        30.43F WCI -12
WARROAD        FAIR       1  -4  78 S7        30.44F WCI -11
CROOKSTON      FAIR       5  -2  72 S10       30.46S WCI -10
FOSSTON        FAIR       7  -8  51 S9        30.44R WCI  -7
DETROIT LAKES  FAIR       9   0  66 SE9       30.46R WCI  -5
MOORHEAD       FAIR       7   0  72 S15       30.47S WCI -11
PARK RAPIDS    FAIR       3  -1  83 SE9       30.46F WCI -12
MAHNOMEN       FAIR       4  -4  67 S8        30.44R WCI  -9
$$
MNZ006-009>011-018-025>026-221600-
   North Central Minnesota

CITY           SKY/WX    TMP DP  RH WIND       PRES   REMARKS
BAUDETTE       FAIR      -3  -8  79 SE7       30.46F WCI -16
FLAG ISLAND    FAIR      -6  -9  84 SE10      30.45F WCI -23
INTL FALLS     FAIR      -3  -7  82 SE5       30.52S WCI -13
WASKISH        FAIR       7   1  78 SE9       30.46F WCI  -7
BIG FORK       FAIR       3  -2  78 CALM      30.50F
LONGVILLE      FAIR       1  -2  85 CALM      30.50F
GRAND RAPIDS   FAIR       3  -2  79 S9        30.55F WCI -12
CRANE LAKE     FAIR     -11 -17  77 CALM      30.58S
ORR            FAIR       5  -4  66 SE3       30.50S
COOK             N/A      3  -2  78 CALM      30.53F
WALKER         FAIR       3  -4  73 E6        30.46F WCI  -8
$$
MNZ012-019>021-037-221600-
   Northeast Minnesota

CITY           SKY/WX    TMP DP  RH WIND       PRES   REMARKS
DULUTH         FAIR       7   2  80 CALM      30.54F
ELY            FAIR       0  -6  78 CALM      30.54F
HIBBING        FAIR      -7 -10  87 CALM      30.54F
DULUTH HARBOR  FAIR       1  -4  78 CALM      30.63F
TWO HARBORS    FAIR      18  10  73 CALM      30.56F
GRAND MARAIS     N/A     23   6  48 CALM      30.63F
G MARAIS ARPRT FAIR      12  -4  48 CALM      30.53F
$$
MNZ029>031-032-039>041-046>048-054>057-064-221600-
   West Central Minnesota

CITY           SKY/WX    TMP DP  RH WIND       PRES   REMARKS
FERGUS FALLS   FAIR      10   1  67 S13       30.49R WCI  -5
WHEATON        FAIR       7   1  78 SE15      30.49F WCI -11
MORRIS         CLOUDY     9   3  78 SE12      30.49F WCI  -6
ALEXANDRIA     FAIR       8   1  73 SE12      30.50R WCI  -7
ELBOW LAKE     FAIR       9   1  72 E15       30.48S WCI  -8
WADENA         FAIR       3  -2  78 SE5       30.49R WCI  -6
GLENWOOD       FAIR       7   1  78 E6        30.51S WCI  -3
APPLETON       CLOUDY    12   3  67 SE12      30.51F WCI  -2
BENSON         CLOUDY    10   1  67 S10       30.53S WCI  -3
ORTONVILLE     CLOUDY     9   3  78 SE10      30.49S WCI  -6
MADISON        CLOUDY    12   7  79 SE9       30.52R WCI   0
WILLMAR        PTSUNNY   12   5  73 SE13      30.55S WCI  -3
$$
MNZ033>034-036-042>043-049>051-058-059-221600-
   Central Minnesota

CITY           SKY/WX    TMP DP  RH WIND       PRES   REMARKS
ST CLOUD       FAIR       5   1  83 E3        30.57S
SAUK CENTRE    FAIR       4   0  81 E5        30.52F WCI  -5
PAYNESVILLE    CLOUDY     7   3  84 E6        30.54F WCI  -3
AITKIN         FAIR       1  -2  85 CALM      30.55S
PINE RIVER     FAIR       0  -4  85 SE5       30.52F WCI -10
BRAINERD       FAIR       5  -2  72 SE5       30.53F WCI  -4
STAPLES        FAIR       3  -2  78 SE6       30.50S WCI  -8
LONG PRAIRIE   FAIR       5   0  78 SE3       30.52S
LITTLE FALLS   FAIR       5  -4  66 SE7       30.55F WCI  -7
LITCHFIELD     PTSUNNY   12   7  79 E6        30.54S WCI   3
BUFFALO        CLOUDY     8   4  82 N3        30.57F
MAPLE LAKE     PTSUNNY    8   6  89 CALM      30.57S
HUTCHINSON     PTSUNNY   15   9  75 E7        30.54F WCI   5
$$
MNZ037-044-045-052-053-221600-
   East Central Minnesota

CITY           SKY/WX    TMP DP  RH WIND       PRES   REMARKS
PRINCETON      FAIR       7   3  85 CALM      30.58S
CAMBRIDGE        N/A      5  -2  72 CALM      30.60S
RUSH CITY      FAIR       2  -2  85 CALM      30.60S
MOOSE LAKE     FAIR       1  -6  71 CALM      30.58R
HINCKLEY       FAIR       0  -4  85 CALM      30.60S
CLOQUET        FAIR       5   0  78 CALM      30.55F
MCGREGOR       FAIR       7   1  78 S3        30.57S
$$
MNZ071>073-080-081-089-090-097-098-221600-
   Southwest Minnesota

CITY           SKY/WX    TMP DP  RH WIND       PRES   REMARKS
MONTEVIDEO     CLOUDY    12   5  73 S8        30.53S WCI   1
GRANITE FALLS  CLOUDY    14   6  71 E8        30.54R WCI   3
CANBY          CLOUDY    13   9  83 E7        30.50S WCI   3
MARSHALL       FLURRIES  14   8  77 SE8       30.51R WCI   3
REDWOOD FALLS  CLOUDY    13   7  77 E5        30.52F WCI   5
OLIVIA         CLOUDY    18   9  68 E7        30.52F WCI   8
PIPESTONE      CLOUDY    16  12  86 SE3       30.45R
WORTHINGTON    CLOUDY    16  13  88 E8        30.46S WCI   5
JACKSON        CLOUDY    18  14  86 E7        30.47F WCI   8
TRACY          CLOUDY    16  13  87 SE8       30.48S WCI   5
SLAYTON        LGT SNOW  16  14  90 E5        30.47R WCI   9
$$
MNZ065>067-074>077-082>085-091>093-221600-
   South Central Minnesota

CITY           SKY/WX    TMP DP  RH WIND       PRES   REMARKS
MANKATO        CLOUDY    18  12  77 E7        30.54S WCI   9
NEW ULM        CLOUDY    14   9  79 E6        30.52F WCI   5
ST JAMES       CLOUDY    18  14  86 NE5       30.52F WCI  11
FAIRMONT       CLOUDY    18  14  84 NE6       30.50F WCI  10
GLENCOE        CLOUDY    16   9  75 E7        30.54F WCI   6
FARIBAULT      CLOUDY    18  10  73 NE8       30.53F WCI   7
OWATONNA       FAIR      19  14  79 E9        30.52S WCI   9
WASECA         PTSUNNY   19  14  79 E12       30.52F WCI   7
ALBERT LEA     FAIR      21  18  86 E8        30.50S WCI  12
$$
MNZ078>079-086>088-094>096-221600-
   Southeast Minnesota

CITY           SKY/WX    TMP DP  RH WIND       PRES   REMARKS
ROCHESTER      FAIR      20  17  88 E12       30.52S WCI   8
RED WING       PTSUNNY   16   7  67 SE5       30.59S WCI   9
STANTON        CLOUDY    17  10  74 NE6       30.55S WCI   9
DODGE CENTER   FAIR      19  14  79 E7        30.51S WCI  10
WINONA         CLOUDY    19  16  86 CALM      30.59F
AUSTIN         FAIR      21  18  86 E8        30.50S WCI  12
PRESTON        PTSUNNY   20  16  85 E8        30.54S WCI  10
$$
ABBREVIATIONS USED IN REMARKS
   TC - TEMPERATURES IN CELSIUS
  WCI - WIND CHILL INDEX
   HX - HEAT INDEX
  VSB - VISIBILITY
$$



USA.gov is the U.S. government's official web portal to all federal, state and local government web resources and services.